ANA1653 RJOO-RJSK

Flight info

Callsign ANA1653
Flight time 1h 3m
Altitude 25000
Route MINAC YOKKA KCC Y312 YAYOI
Aircraft CRJ7/M-SDE2E3FGRY/H

Departure

Time 2026-04-16 03:14
Airport Osaka Itami International Airport (RJOO)

Arrival

Time 2026-04-16 04:17
Airport Akita Airport (RJSK)
Time Latitude Longitude Altitude Speed Heading
2026-04-16 02:53 34.78806 135.44469 46 ft 0 kts 316°
2026-04-16 02:53 34.78806 135.44468 48 ft 0 kts 316°
2026-04-16 03:06 34.78803 135.44472 48 ft 3 kts 313°
2026-04-16 03:06 34.78797 135.44495 47 ft 4 kts 243°
2026-04-16 03:06 34.78825 135.44514 45 ft 0 kts 188°
2026-04-16 03:08 34.78819 135.44513 46 ft 3 kts 188°
2026-04-16 03:09 34.78778 135.44506 48 ft 8 kts 188°
2026-04-16 03:09 34.78714 135.44495 47 ft 10 kts 188°
2026-04-16 03:09 34.78665 135.44472 47 ft 5 kts 236°
2026-04-16 03:09 34.78642 135.44434 48 ft 6 kts 229°
2026-04-16 03:10 34.78607 135.44391 47 ft 8 kts 222°
2026-04-16 03:10 34.78561 135.44344 45 ft 9 kts 206°
2026-04-16 03:10 34.78493 135.44334 48 ft 10 kts 179°
2026-04-16 03:10 34.78416 135.44335 49 ft 13 kts 180°
2026-04-16 03:11 34.78315 135.44336 49 ft 17 kts 180°
2026-04-16 03:11 34.78186 135.44344 49 ft 19 kts 161°
2026-04-16 03:11 34.78081 135.44450 48 ft 20 kts 134°
2026-04-16 03:11 34.77980 135.44576 48 ft 21 kts 134°
2026-04-16 03:12 34.77874 135.44707 48 ft 22 kts 136°
2026-04-16 03:12 34.77760 135.44839 45 ft 23 kts 135°
2026-04-16 03:12 34.77668 135.44924 47 ft 16 kts 153°
2026-04-16 03:12 34.77564 135.44984 48 ft 17 kts 155°
2026-04-16 03:13 34.77454 135.45004 48 ft 16 kts 220°
2026-04-16 03:13 34.77558 135.44781 49 ft 65 kts 315°
2026-04-16 03:13 34.78058 135.44172 49 ft 137 kts 315°
2026-04-16 03:13 34.78833 135.43196 382 ft 168 kts 315°
2026-04-16 03:14 34.79551 135.42065 1382 ft 166 kts 294°
2026-04-16 03:14 34.79348 135.40689 2498 ft 183 kts 241°
2026-04-16 03:14 34.78200 135.39802 3032 ft 213 kts 192°
2026-04-16 03:14 34.76663 135.39901 3492 ft 238 kts 159°
2026-04-16 03:15 34.75277 135.41037 3955 ft 249 kts 115°
2026-04-16 03:15 34.74932 135.43030 4891 ft 225 kts 79°
2026-04-16 03:15 34.75105 135.44966 5857 ft 247 kts 74°
2026-04-16 03:15 34.75533 135.47144 6161 ft 281 kts 67°
2026-04-16 03:16 34.76173 135.49514 6766 ft 305 kts 76°
2026-04-16 03:16 34.76404 135.51977 8519 ft 285 kts 79°
2026-04-16 03:16 34.76575 135.54316 10128 ft 271 kts 78°
2026-04-16 03:16 34.76770 135.56613 10912 ft 287 kts 77°
2026-04-16 03:17 34.77050 135.59102 11461 ft 306 kts 76°
2026-04-16 03:17 34.77357 135.61735 12066 ft 324 kts 76°
2026-04-16 03:17 34.77679 135.64507 12757 ft 337 kts 76°
2026-04-16 03:17 34.78009 135.67402 13609 ft 345 kts 76°
2026-04-16 03:18 34.78344 135.70281 14345 ft 352 kts 76°
2026-04-16 03:18 34.78745 135.73243 15013 ft 356 kts 70°
2026-04-16 03:18 34.79526 135.76106 15691 ft 359 kts 63°
2026-04-16 03:18 34.80477 135.78930 16332 ft 365 kts 62°
2026-04-16 03:19 34.81459 135.81811 16972 ft 371 kts 62°
2026-04-16 03:19 34.82431 135.84751 17602 ft 378 kts 63°
2026-04-16 03:19 34.83374 135.87772 18211 ft 385 kts 64°
2026-04-16 03:19 34.84319 135.90840 18779 ft 390 kts 64°
2026-04-16 03:20 34.85277 135.93946 19331 ft 394 kts 63°
2026-04-16 03:20 34.86250 135.97083 19851 ft 399 kts 63°
2026-04-16 03:20 34.87224 136.00264 20405 ft 403 kts 63°
2026-04-16 03:20 34.88207 136.03477 20928 ft 407 kts 63°
2026-04-16 03:21 34.89203 136.06716 21451 ft 410 kts 63°
2026-04-16 03:21 34.90206 136.09981 21940 ft 414 kts 63°
2026-04-16 03:21 34.91224 136.13295 22382 ft 419 kts 62°
2026-04-16 03:21 34.92237 136.16638 22874 ft 423 kts 63°
2026-04-16 03:22 34.93260 136.20025 23227 ft 429 kts 63°
2026-04-16 03:22 34.94300 136.23434 23638 ft 433 kts 62°
2026-04-16 03:22 34.95367 136.26913 23952 ft 438 kts 62°
2026-04-16 03:22 34.96421 136.30409 24295 ft 441 kts 62°
2026-04-16 03:23 34.97499 136.33919 24657 ft 443 kts 62°
2026-04-16 03:23 34.98567 136.37473 24966 ft 449 kts 63°
2026-04-16 03:23 34.99629 136.41085 25193 ft 455 kts 63°
2026-04-16 03:23 35.00748 136.44708 25489 ft 458 kts 61°
2026-04-16 03:24 35.02169 136.48143 25802 ft 450 kts 50°
2026-04-16 03:24 35.03894 136.51333 26112 ft 450 kts 46°
2026-04-16 03:24 35.05729 136.54428 26411 ft 452 kts 45°
2026-04-16 03:24 35.07579 136.57533 26750 ft 454 kts 45°
2026-04-16 03:25 35.09403 136.60689 26971 ft 458 kts 46°
2026-04-16 03:25 35.11214 136.63903 27215 ft 460 kts 46°
2026-04-16 03:25 35.13027 136.67134 27441 ft 462 kts 46°
2026-04-16 03:25 35.14842 136.70370 27668 ft 465 kts 46°
2026-04-16 03:26 35.16681 136.73646 27891 ft 467 kts 46°
2026-04-16 03:26 35.18517 136.76926 28094 ft 469 kts 46°
2026-04-16 03:26 35.20361 136.80222 28373 ft 470 kts 46°
2026-04-16 03:26 35.22205 136.83529 28656 ft 471 kts 46°
2026-04-16 03:27 35.24050 136.86837 28946 ft 471 kts 46°
2026-04-16 03:27 35.25947 136.90081 29163 ft 463 kts 39°
2026-04-16 03:27 35.28225 136.92743 29449 ft 449 kts 30°
2026-04-16 03:27 35.30680 136.95044 29735 ft 440 kts 23°
2026-04-16 03:28 35.33243 136.97061 30006 ft 436 kts 20°
2026-04-16 03:28 35.35792 136.98973 30247 ft 436 kts 20°
2026-04-16 03:28 35.38376 137.00945 30437 ft 439 kts 21°
2026-04-16 03:28 35.40934 137.03004 30627 ft 441 kts 22°
2026-04-16 03:29 35.43494 137.05070 30822 ft 441 kts 22°
2026-04-16 03:29 35.46066 137.07141 31025 ft 442 kts 22°
2026-04-16 03:29 35.48633 137.09213 31262 ft 442 kts 22°
2026-04-16 03:29 35.51191 137.11315 31491 ft 443 kts 23°
2026-04-16 03:30 35.53747 137.13430 31706 ft 443 kts 22°
2026-04-16 03:30 35.56318 137.15515 31910 ft 442 kts 21°
2026-04-16 03:30 35.58901 137.17595 32039 ft 445 kts 22°
2026-04-16 03:30 35.61475 137.19707 32274 ft 444 kts 22°
2026-04-16 03:31 35.64048 137.21806 32439 ft 445 kts 22°
2026-04-16 03:31 35.66629 137.23916 32574 ft 446 kts 22°
2026-04-16 03:31 35.69225 137.26006 32650 ft 447 kts 21°
2026-04-16 03:31 35.71840 137.28048 32868 ft 446 kts 21°
2026-04-16 03:32 35.74438 137.30141 33056 ft 446 kts 21°
2026-04-16 03:32 35.77030 137.32259 33232 ft 448 kts 22°
2026-04-16 03:34 35.95140 137.47094 34334 ft 450 kts 23°
2026-04-16 03:34 35.97721 137.49289 34436 ft 450 kts 22°
2026-04-16 03:34 36.00330 137.51413 34564 ft 450 kts 22°
2026-04-16 03:34 36.02927 137.53571 34725 ft 451 kts 22°
2026-04-16 03:35 36.04663 137.54976 34778 ft 449 kts 21°
2026-04-16 03:35 36.07296 137.57008 34952 ft 447 kts 21°
2026-04-16 03:35 36.09890 137.59165 35089 ft 451 kts 24°
2026-04-16 03:35 36.12428 137.61431 35311 ft 449 kts 24°
2026-04-16 03:36 36.15019 137.63558 35445 ft 446 kts 21°
2026-04-16 03:36 36.17641 137.65619 35587 ft 446 kts 21°
2026-04-16 03:36 36.20255 137.67710 35642 ft 448 kts 22°
2026-04-16 03:37 36.25491 137.71946 35595 ft 450 kts 22°
2026-04-16 03:37 36.28062 137.74185 35826 ft 453 kts 25°
2026-04-16 03:37 36.30627 137.76441 35879 ft 450 kts 22°
2026-04-16 03:38 36.35888 137.80625 35951 ft 449 kts 23°
2026-04-16 03:38 36.38440 137.82834 36204 ft 449 kts 25°
2026-04-16 03:38 36.40974 137.85092 36326 ft 447 kts 23°
2026-04-16 03:39 36.46155 137.89320 36507 ft 445 kts 21°
2026-04-16 03:39 36.48756 137.91418 36612 ft 445 kts 22°
2026-04-16 03:39 36.51353 137.93535 36709 ft 447 kts 22°
2026-04-16 03:39 36.53961 137.95635 36815 ft 446 kts 22°
2026-04-16 03:40 36.56575 137.97709 36897 ft 446 kts 22°
2026-04-16 03:40 36.61817 138.01840 37067 ft 448 kts 22°
2026-04-16 03:41 36.67036 138.06078 37266 ft 448 kts 23°
2026-04-16 03:41 36.72249 138.10339 37432 ft 448 kts 22°
2026-04-16 03:42 36.77487 138.14561 37610 ft 449 kts 22°
2026-04-16 03:42 36.82758 138.18823 37702 ft 452 kts 22°
2026-04-16 03:43 36.88032 138.23093 37871 ft 452 kts 22°
2026-04-16 03:43 36.90638 138.25204 38013 ft 453 kts 22°
2026-04-16 03:43 36.93317 138.27374 38042 ft 454 kts 22°
2026-04-16 03:44 36.98598 138.31667 38173 ft 456 kts 22°
2026-04-16 03:44 37.03930 138.35988 38317 ft 456 kts 22°
2026-04-16 03:45 37.09278 138.40320 38417 ft 459 kts 22°
2026-04-16 03:45 37.14658 138.44676 38531 ft 461 kts 22°
2026-04-16 03:46 37.20026 138.49087 38649 ft 462 kts 23°
2026-04-16 03:46 37.25412 138.53476 38739 ft 461 kts 22°
2026-04-16 03:47 37.30793 138.57899 38800 ft 464 kts 23°
2026-04-16 03:47 37.36183 138.62329 38977 ft 461 kts 22°
2026-04-16 03:48 37.41509 138.66679 39096 ft 461 kts 22°
2026-04-16 03:48 37.46918 138.71074 39123 ft 463 kts 22°
2026-04-16 03:49 37.52346 138.75488 39138 ft 466 kts 23°
2026-04-16 03:49 37.57782 138.79937 39135 ft 465 kts 23°
2026-04-16 03:50 37.63188 138.84366 39118 ft 462 kts 23°
2026-04-16 03:50 37.68540 138.88772 39115 ft 458 kts 23°
2026-04-16 03:51 37.73851 138.93155 39100 ft 454 kts 23°
2026-04-16 03:51 37.79110 138.97504 39115 ft 450 kts 24°
2026-04-16 03:52 37.84319 139.01826 39102 ft 446 kts 23°
2026-04-16 03:52 37.89489 139.06107 39097 ft 442 kts 23°
2026-04-16 03:53 37.94598 139.10351 38821 ft 439 kts 23°
2026-04-16 03:53 37.97251 139.12374 37554 ft 450 kts 20°
2026-04-16 03:53 38.00018 139.14201 36949 ft 447 kts 17°
2026-04-16 03:53 38.02813 139.15906 36422 ft 445 kts 17°
2026-04-16 03:54 38.05607 139.17598 35918 ft 444 kts 18°
2026-04-16 03:54 38.08366 139.19304 35381 ft 440 kts 19°
2026-04-16 03:54 38.11102 139.21041 34724 ft 439 kts 19°
2026-04-16 03:54 38.13832 139.22772 34049 ft 438 kts 20°
2026-04-16 03:55 38.16549 139.24497 33271 ft 436 kts 20°
2026-04-16 03:55 38.19250 139.26214 32504 ft 433 kts 21°
2026-04-16 03:55 38.21934 139.27922 31732 ft 430 kts 21°
2026-04-16 03:55 38.24610 139.29626 31149 ft 428 kts 22°
2026-04-16 03:56 38.27248 139.31304 30541 ft 422 kts 22°
2026-04-16 03:56 38.29826 139.32945 30036 ft 416 kts 22°
2026-04-16 03:56 38.32393 139.34581 29513 ft 410 kts 22°
2026-04-16 03:56 38.34909 139.36187 29004 ft 400 kts 23°
2026-04-16 03:57 38.37367 139.37766 28418 ft 392 kts 23°
2026-04-16 03:57 38.39788 139.39309 27793 ft 386 kts 22°
2026-04-16 03:57 38.42165 139.40829 27195 ft 380 kts 22°
2026-04-16 03:57 38.44513 139.42327 26595 ft 375 kts 22°
2026-04-16 03:58 38.46826 139.43806 26035 ft 369 kts 22°
2026-04-16 03:58 38.49101 139.45269 25502 ft 363 kts 22°
2026-04-16 03:58 38.51342 139.46703 24960 ft 358 kts 22°
2026-04-16 03:58 38.53553 139.48124 24451 ft 353 kts 22°
2026-04-16 03:59 38.55727 139.49518 23954 ft 347 kts 22°
2026-04-16 03:59 38.57872 139.50895 23422 ft 342 kts 22°
2026-04-16 03:59 38.59982 139.52256 22867 ft 337 kts 22°
2026-04-16 03:59 38.62070 139.53597 22411 ft 334 kts 22°
2026-04-16 04:00 38.64139 139.54927 22033 ft 332 kts 23°
2026-04-16 04:00 38.66191 139.56249 21662 ft 329 kts 22°
2026-04-16 04:00 38.68234 139.57559 21285 ft 327 kts 22°
2026-04-16 04:00 38.70258 139.58857 20933 ft 325 kts 23°
2026-04-16 04:01 38.72265 139.60155 20579 ft 322 kts 23°
2026-04-16 04:01 38.74258 139.61447 20241 ft 320 kts 23°
2026-04-16 04:01 38.76245 139.62729 19911 ft 318 kts 23°
2026-04-16 04:01 38.78216 139.64000 19540 ft 316 kts 23°
2026-04-16 04:02 38.80172 139.65266 19172 ft 314 kts 23°
2026-04-16 04:02 38.82115 139.66524 18825 ft 312 kts 23°
2026-04-16 04:02 38.84047 139.67773 18484 ft 310 kts 24°
2026-04-16 04:02 38.85938 139.68997 18080 ft 309 kts 23°
2026-04-16 04:03 38.87857 139.70236 17742 ft 308 kts 23°
2026-04-16 04:03 38.89760 139.71472 17393 ft 306 kts 23°
2026-04-16 04:03 38.91657 139.72703 17050 ft 304 kts 24°
2026-04-16 04:03 38.93539 139.73922 16726 ft 303 kts 24°
2026-04-16 04:04 38.95407 139.75136 16429 ft 300 kts 24°
2026-04-16 04:04 38.97265 139.76343 16116 ft 298 kts 24°
2026-04-16 04:04 38.99112 139.77542 15818 ft 296 kts 24°
2026-04-16 04:04 39.00945 139.78737 15519 ft 295 kts 24°
2026-04-16 04:05 39.02768 139.79922 15220 ft 293 kts 24°
2026-04-16 04:05 39.04584 139.81099 14927 ft 291 kts 24°
2026-04-16 04:05 39.06387 139.82271 14475 ft 289 kts 24°
2026-04-16 04:05 39.08166 139.83446 14032 ft 287 kts 24°
2026-04-16 04:06 39.09934 139.84616 13551 ft 285 kts 25°
2026-04-16 04:06 39.11693 139.85777 13028 ft 284 kts 25°
2026-04-16 04:06 39.13454 139.86941 12624 ft 283 kts 25°
2026-04-16 04:06 39.15165 139.88079 12511 ft 270 kts 25°
2026-04-16 04:07 39.16809 139.89166 12239 ft 263 kts 25°
2026-04-16 04:07 39.20049 139.91308 11438 ft 261 kts 26°
2026-04-16 04:07 39.21662 139.92375 11058 ft 260 kts 26°
2026-04-16 04:08 39.23265 139.93440 10709 ft 259 kts 26°
2026-04-16 04:08 39.24868 139.94504 10352 ft 258 kts 27°
2026-04-16 04:08 39.26463 139.95563 10000 ft 257 kts 27°
2026-04-16 04:08 39.28054 139.96614 9608 ft 257 kts 27°
2026-04-16 04:09 39.29640 139.97668 9194 ft 257 kts 27°
2026-04-16 04:09 39.31208 139.98708 8757 ft 257 kts 27°
2026-04-16 04:09 39.32797 139.99822 8423 ft 253 kts 30°
2026-04-16 04:09 39.34244 140.00986 8182 ft 246 kts 32°
2026-04-16 04:10 39.35682 140.02186 7831 ft 245 kts 32°
2026-04-16 04:10 39.37117 140.03383 7457 ft 246 kts 32°
2026-04-16 04:10 39.38555 140.04576 7089 ft 246 kts 32°
2026-04-16 04:10 39.39995 140.05771 6721 ft 246 kts 32°
2026-04-16 04:11 39.41446 140.06948 6336 ft 245 kts 32°
2026-04-16 04:11 39.42887 140.08112 5998 ft 243 kts 32°
2026-04-16 04:11 39.44282 140.09241 5902 ft 230 kts 33°
2026-04-16 04:11 39.45607 140.10291 5752 ft 217 kts 32°
2026-04-16 04:12 39.46888 140.11296 5344 ft 215 kts 33°
2026-04-16 04:12 39.48166 140.12303 4949 ft 215 kts 32°
2026-04-16 04:12 39.49593 140.12840 4502 ft 221 kts 359°
2026-04-16 04:12 39.51077 140.12430 4316 ft 212 kts 345°
2026-04-16 04:13 39.52415 140.11783 4157 ft 199 kts 341°
2026-04-16 04:13 39.53672 140.11119 3878 ft 193 kts 341°
2026-04-16 04:13 39.54896 140.10432 3572 ft 192 kts 338°
2026-04-16 04:13 39.56116 140.09727 3221 ft 191 kts 343°
2026-04-16 04:14 39.57393 140.09363 2983 ft 186 kts
2026-04-16 04:14 39.58654 140.09512 2696 ft 181 kts 18°
2026-04-16 04:14 39.59810 140.10134 2377 ft 179 kts 33°
2026-04-16 04:14 39.60735 140.11090 2300 ft 160 kts 47°
2026-04-16 04:15 39.61369 140.12155 2129 ft 142 kts 59°
2026-04-16 04:15 39.61751 140.13323 1753 ft 136 kts 72°
2026-04-16 04:15 39.61914 140.14396 1470 ft 119 kts 81°
2026-04-16 04:15 39.61973 140.15525 1332 ft 128 kts 84°
2026-04-16 04:16 39.61987 140.16655 1084 ft 119 kts 87°
2026-04-16 04:16 39.61944 140.17802 784 ft 134 kts 93°
2026-04-16 04:16 39.61823 140.18952 568 ft 128 kts 97°
2026-04-16 04:16 39.61725 140.20088 408 ft 130 kts 94°
2026-04-16 04:17 39.61637 140.21184 305 ft 105 kts 98°
2026-04-16 04:17 39.61559 140.21962 311 ft 49 kts 96°
2026-04-16 04:17 39.61527 140.22275 311 ft 27 kts 98°
2026-04-16 04:17 39.61510 140.22437 315 ft 11 kts 104°
2026-04-16 04:18 39.61457 140.22497 313 ft 11 kts 175°
2026-04-16 04:18 39.61383 140.22482 314 ft 11 kts 207°
2026-04-16 04:18 39.61351 140.22393 313 ft 12 kts 272°
2026-04-16 04:18 39.61360 140.22274 312 ft 14 kts 276°
2026-04-16 04:19 39.61368 140.22193 311 ft 10 kts 276°
2026-04-16 04:19 39.61371 140.22113 311 ft 9 kts 266°
2026-04-16 04:19 39.61328 140.22081 311 ft 8 kts 188°
2026-04-16 04:19 39.61273 140.22072 311 ft 4 kts 187°
2026-04-16 04:20 39.61251 140.22069 311 ft 1 kts 187°
2026-04-16 04:20 39.61240 140.22067 311 ft 1 kts 187°
2026-04-16 04:20 39.61239 140.22067 311 ft 0 kts 187°